This is the latest recevied weather packets stored in our database for station/object N8VDS-10. If no packets are shown the sender has not sent any weather packets the latest 10 day(s).
| Time | Temp. | Humidity | Pressure | Rain* | Wind** | Luminosity | Snow |
|---|---|---|---|---|---|---|---|
| 1777552178 | 5° C | 81% | 1017.8 hPa | 0 mm | - | 58 W/m² | - |
| 1777551875 | 4.44° C | 84% | 1018 hPa | 0 mm | - | 55 W/m² | - |
| 1777551572 | 4.44° C | 83% | 1017.9 hPa | 0 mm | - | 41 W/m² | - |
| 1777551269 | 4.44° C | 83% | 1017.9 hPa | 0 mm | - | 38 W/m² | - |
| 1777550966 | 4.44° C | 84% | 1018.1 hPa | 0 mm | - | 79 W/m² | - |
| 1777550663 | 4.44° C | 84% | 1018 hPa | 0 mm | - | 92 W/m² | - |
| 1777550359 | 4.44° C | 85% | 1017.7 hPa | 0 mm | - | 67 W/m² | - |
| 1777550055 | 3.89° C | 86% | 1018.1 hPa | 0 mm | - | 51 W/m² | - |
| 1777549752 | 3.89° C | 87% | 1018 hPa | 0 mm | - | 53 W/m² | - |
| 1777549447 | 3.89° C | 88% | 1017.9 hPa | 0 mm | - | 37 W/m² | - |
| 1777549144 | 3.89° C | 88% | 1017.8 hPa | 0 mm | - | 29 W/m² | - |
| 1777548840 | 3.89° C | 88% | 1017.8 hPa | 0 mm | - | 28 W/m² | - |
| 1777548537 | 3.89° C | 88% | 1017.9 hPa | 0 mm | - | 28 W/m² | - |
| 1777548234 | 3.89° C | 88% | 1017.8 hPa | 0 mm | - | 33 W/m² | - |
| 1777547931 | 3.89° C | 88% | 1017.8 hPa | 0 mm | - | 32 W/m² | - |
| 1777547627 | 3.89° C | 88% | 1017.7 hPa | 0 mm | - | 28 W/m² | - |
| 1777547323 | 3.89° C | 88% | 1018 hPa | 0 mm | - | 23 W/m² | - |
| 1777547021 | 3.89° C | 88% | 1017.9 hPa | 0 mm | - | 20 W/m² | - |
| 1777546718 | 4.44° C | 88% | 1017.6 hPa | 0 mm | - | 16 W/m² | - |
| 1777546415 | 4.44° C | 88% | 1017.7 hPa | 0 mm | - | 12 W/m² | - |
| 1777546112 | 4.44° C | 88% | 1017.6 hPa | 0 mm | - | 10 W/m² | - |
| 1777545807 | 4.44° C | 88% | 1017.6 hPa | 0 mm | - | 5 W/m² | - |
| 1777545505 | 4.44° C | 89% | 1017.6 hPa | 0 mm | - | 2 W/m² | - |
| 1777545201 | 4.44° C | 90% | 1017.5 hPa | 0 mm | - | 1 W/m² | - |
| 1777544900 | 4.44° C | 90% | 1017.6 hPa | 0 mm | - | 1 W/m² | - |
* Rain latest hour (hover to see other rain measurements)
** Current wind speed in m/s (hover to see current wind gust speed)